Year,Month,Day,Hour,Minute,Value (Times are PST for temperature in C)
2016,07,25,00,00,14.40
2016,07,25,00,01,14.30
2016,07,25,00,02,14.30
2016,07,25,00,03,14.30
2016,07,25,00,04,14.40
2016,07,25,00,05,14.40
2016,07,25,00,06,14.40
2016,07,25,00,07,14.40
2016,07,25,00,08,14.40
2016,07,25,00,09,14.40
2016,07,25,00,10,14.40
2016,07,25,00,11,14.40
2016,07,25,00,12,14.40
2016,07,25,00,13,14.40
2016,07,25,00,14,14.40
2016,07,25,00,15,14.40
2016,07,25,00,16,14.30
2016,07,25,00,17,14.30
2016,07,25,00,18,14.30
2016,07,25,00,19,14.30
2016,07,25,00,20,14.30
2016,07,25,00,21,14.30
2016,07,25,00,22,14.30
2016,07,25,00,23,14.30
2016,07,25,00,24,14.30
2016,07,25,00,25,14.30
2016,07,25,00,26,14.30
2016,07,25,00,27,14.30
2016,07,25,00,28,14.30
2016,07,25,00,29,14.30
2016,07,25,00,30,14.40
2016,07,25,00,31,14.30
2016,07,25,00,32,14.30
2016,07,25,00,33,14.30
2016,07,25,00,34,14.30
2016,07,25,00,35,14.30
2016,07,25,00,36,14.20
2016,07,25,00,37,14.20
2016,07,25,00,38,14.20
2016,07,25,00,39,14.20
2016,07,25,00,40,14.20
2016,07,25,00,41,14.20
2016,07,25,00,42,14.10
2016,07,25,00,43,14.10
2016,07,25,00,44,14.10
2016,07,25,00,45,14.10
2016,07,25,00,46,14.10
2016,07,25,00,47,14.10
2016,07,25,00,48,14.10
2016,07,25,00,49,14.10
2016,07,25,00,50,14.10
2016,07,25,00,51,14.10
2016,07,25,00,52,14.10
2016,07,25,00,53,14.10
2016,07,25,00,54,14.10
2016,07,25,00,55,14.10
2016,07,25,00,56,14.10
2016,07,25,00,57,14.10
2016,07,25,00,58,14.10
2016,07,25,00,59,14.20
2016,07,25,01,00,14.20
2016,07,25,01,01,14.20
2016,07,25,01,02,14.20
2016,07,25,01,03,14.20
2016,07,25,01,04,14.30
2016,07,25,01,05,14.30
2016,07,25,01,06,14.40
2016,07,25,01,07,14.40
2016,07,25,01,08,14.30
2016,07,25,01,09,14.30
2016,07,25,01,10,14.20
2016,07,25,01,11,14.20
2016,07,25,01,12,14.20
2016,07,25,01,13,14.20
2016,07,25,01,14,14.30
2016,07,25,01,15,14.30
2016,07,25,01,16,14.20
2016,07,25,01,17,14.20
2016,07,25,01,18,14.20
2016,07,25,01,19,14.20
2016,07,25,01,20,14.20
2016,07,25,01,21,14.20
2016,07,25,01,22,14.10
2016,07,25,01,23,14.10
2016,07,25,01,24,14.10
2016,07,25,01,25,14.10
2016,07,25,01,26,14.10
2016,07,25,01,27,14.10
2016,07,25,01,28,14.10
2016,07,25,01,29,14.00
2016,07,25,01,30,14.00
2016,07,25,01,31,14.00
2016,07,25,01,32,14.10
2016,07,25,01,33,14.20
2016,07,25,01,34,14.30
2016,07,25,01,35,14.30
2016,07,25,01,36,14.30
2016,07,25,01,37,14.40
2016,07,25,01,38,14.30
2016,07,25,01,39,14.40
2016,07,25,01,40,14.40
2016,07,25,01,41,14.40
2016,07,25,01,42,14.40
2016,07,25,01,43,14.40
2016,07,25,01,44,14.40
2016,07,25,01,45,14.40
2016,07,25,01,46,14.40
2016,07,25,01,47,14.30
2016,07,25,01,48,14.30
2016,07,25,01,49,14.20
2016,07,25,01,50,14.20
2016,07,25,01,51,14.10
2016,07,25,01,52,14.10
2016,07,25,01,53,14.00
2016,07,25,01,54,14.00
2016,07,25,01,55,14.00
2016,07,25,01,56,14.10
2016,07,25,01,57,14.10
2016,07,25,01,58,14.10
2016,07,25,01,59,14.10
2016,07,25,02,00,14.10
2016,07,25,02,01,14.00
2016,07,25,02,02,13.90
2016,07,25,02,03,13.90
2016,07,25,02,04,13.80
2016,07,25,02,05,13.80
2016,07,25,02,06,13.80
2016,07,25,02,07,13.80
2016,07,25,02,08,13.80
2016,07,25,02,09,13.90
2016,07,25,02,10,13.90
2016,07,25,02,11,13.90
2016,07,25,02,12,13.90
2016,07,25,02,13,13.90
2016,07,25,02,14,13.90
2016,07,25,02,15,13.90
2016,07,25,02,16,13.90
2016,07,25,02,17,13.80
2016,07,25,02,18,13.80
2016,07,25,02,19,13.80
2016,07,25,02,20,13.80
2016,07,25,02,21,13.80
2016,07,25,02,22,13.80
2016,07,25,02,23,13.80
2016,07,25,02,24,13.90
2016,07,25,02,25,13.90
2016,07,25,02,26,13.90
2016,07,25,02,27,13.90
2016,07,25,02,28,13.90
2016,07,25,02,29,14.00
2016,07,25,02,30,14.00
2016,07,25,02,31,14.00
2016,07,25,02,32,14.00
2016,07,25,02,33,14.00
2016,07,25,02,34,14.00
2016,07,25,02,35,14.00
2016,07,25,02,36,14.00
2016,07,25,02,37,14.00
2016,07,25,02,38,14.00
2016,07,25,02,39,14.00
2016,07,25,02,40,14.10
2016,07,25,02,41,14.10
2016,07,25,02,42,14.10
2016,07,25,02,43,14.10
2016,07,25,02,44,14.10
2016,07,25,02,45,14.10
2016,07,25,02,46,14.10
2016,07,25,02,47,14.10
2016,07,25,02,48,14.10
2016,07,25,02,49,14.00
2016,07,25,02,50,14.00
2016,07,25,02,51,14.00
2016,07,25,02,52,14.00
2016,07,25,02,53,14.00
2016,07,25,02,54,14.00
2016,07,25,02,55,14.00
2016,07,25,02,56,13.90
2016,07,25,02,57,13.90
2016,07,25,02,58,13.90
2016,07,25,02,59,13.80
2016,07,25,03,00,13.70
2016,07,25,03,01,13.70
2016,07,25,03,02,13.60
2016,07,25,03,03,13.50
2016,07,25,03,04,13.40
2016,07,25,03,05,13.30
2016,07,25,03,06,13.30
2016,07,25,03,07,13.20
2016,07,25,03,08,13.10
2016,07,25,03,09,13.10
2016,07,25,03,10,13.00
2016,07,25,03,11,12.90
2016,07,25,03,12,12.90
2016,07,25,03,13,12.80
2016,07,25,03,14,12.80
2016,07,25,03,15,12.80
2016,07,25,03,16,12.80
2016,07,25,03,17,12.90
2016,07,25,03,18,13.00
2016,07,25,03,19,13.00
2016,07,25,03,20,12.90
2016,07,25,03,21,13.00
2016,07,25,03,22,13.00
2016,07,25,03,23,13.00
2016,07,25,03,24,13.00
2016,07,25,03,25,13.00
2016,07,25,03,26,12.90
2016,07,25,03,27,12.90
2016,07,25,03,28,12.90
2016,07,25,03,29,12.90
2016,07,25,03,30,12.80
2016,07,25,03,31,12.80
2016,07,25,03,32,12.90
2016,07,25,03,33,13.00
2016,07,25,03,34,13.10
2016,07,25,03,35,13.10
2016,07,25,03,36,13.10
2016,07,25,03,37,13.10
2016,07,25,03,38,13.10
2016,07,25,03,39,13.20
2016,07,25,03,40,13.30
2016,07,25,03,41,13.30
2016,07,25,03,42,13.30
2016,07,25,03,43,13.30
2016,07,25,03,44,13.30
2016,07,25,03,45,13.30
2016,07,25,03,46,13.20
2016,07,25,03,47,13.20
2016,07,25,03,48,13.20
2016,07,25,03,49,13.20
2016,07,25,03,50,13.10
2016,07,25,03,51,13.10
2016,07,25,03,52,13.10
2016,07,25,03,53,13.10
2016,07,25,03,54,13.10
2016,07,25,03,55,13.10
2016,07,25,03,56,13.10
2016,07,25,03,57,13.10
2016,07,25,03,58,13.10
2016,07,25,03,59,13.10
2016,07,25,04,00,13.20
2016,07,25,04,01,13.20
2016,07,25,04,02,13.20
2016,07,25,04,03,13.20
2016,07,25,04,04,13.30
2016,07,25,04,05,13.30
2016,07,25,04,06,13.30
2016,07,25,04,07,13.30
2016,07,25,04,08,13.30
2016,07,25,04,09,13.30
2016,07,25,04,10,13.40
2016,07,25,04,11,13.40
2016,07,25,04,12,13.60
2016,07,25,04,13,13.80
2016,07,25,04,14,14.00
2016,07,25,04,15,13.90
2016,07,25,04,16,13.90
2016,07,25,04,17,13.80
2016,07,25,04,18,13.90
2016,07,25,04,19,14.10
2016,07,25,04,20,14.30
2016,07,25,04,21,14.40
2016,07,25,04,22,14.50
2016,07,25,04,23,14.40
2016,07,25,04,24,14.30
2016,07,25,04,25,14.20
2016,07,25,04,26,14.10
2016,07,25,04,27,13.90
2016,07,25,04,28,13.80
2016,07,25,04,29,13.70
2016,07,25,04,30,13.60
2016,07,25,04,31,13.50
2016,07,25,04,32,13.40
2016,07,25,04,33,13.30
2016,07,25,04,34,13.20
2016,07,25,04,35,13.10
2016,07,25,04,36,13.00
2016,07,25,04,37,12.90
2016,07,25,04,38,12.80
2016,07,25,04,39,12.80
2016,07,25,04,40,12.70
2016,07,25,04,41,12.60
2016,07,25,04,42,12.50
2016,07,25,04,43,12.50
2016,07,25,04,44,12.40
2016,07,25,04,45,12.40
2016,07,25,04,46,12.40
2016,07,25,04,47,12.50
2016,07,25,04,48,12.60
2016,07,25,04,49,12.60
2016,07,25,04,50,12.70
2016,07,25,04,51,12.80
2016,07,25,04,52,12.80
2016,07,25,04,53,12.90
2016,07,25,04,54,13.00
2016,07,25,04,55,13.00
2016,07,25,04,56,13.10
2016,07,25,04,57,13.10
2016,07,25,04,58,13.10
2016,07,25,04,59,13.10
2016,07,25,05,00,13.20
2016,07,25,05,01,13.20
2016,07,25,05,02,13.20
2016,07,25,05,03,13.20
2016,07,25,05,04,13.20
2016,07,25,05,05,13.00
2016,07,25,05,06,13.00
2016,07,25,05,07,12.90
2016,07,25,05,08,12.80
2016,07,25,05,09,12.70
2016,07,25,05,10,12.60
2016,07,25,05,11,12.60
2016,07,25,05,12,12.50
2016,07,25,05,13,12.30
2016,07,25,05,14,12.30
2016,07,25,05,15,12.30
2016,07,25,05,16,12.20
2016,07,25,05,17,12.10
2016,07,25,05,18,11.90
2016,07,25,05,19,11.90
2016,07,25,05,20,11.80
2016,07,25,05,21,11.80
2016,07,25,05,22,11.80
2016,07,25,05,23,11.80
2016,07,25,05,24,11.70
2016,07,25,05,25,11.70
2016,07,25,05,26,11.70
2016,07,25,05,27,11.70
2016,07,25,05,28,11.80
2016,07,25,05,29,11.80
2016,07,25,05,30,12.00
2016,07,25,05,31,12.20
2016,07,25,05,32,12.30
2016,07,25,05,33,12.30
2016,07,25,05,34,12.30
2016,07,25,05,35,12.50
2016,07,25,05,36,12.60
2016,07,25,05,37,12.80
2016,07,25,05,38,13.10
2016,07,25,05,39,13.20
2016,07,25,05,40,13.20
2016,07,25,05,41,13.20
2016,07,25,05,42,13.20
2016,07,25,05,43,13.10
2016,07,25,05,44,13.20
2016,07,25,05,45,13.00
2016,07,25,05,46,12.70
2016,07,25,05,47,12.40
2016,07,25,05,48,12.20
2016,07,25,05,49,12.00
2016,07,25,05,50,11.90
2016,07,25,05,51,11.80
2016,07,25,05,52,11.80
2016,07,25,05,53,11.80
2016,07,25,05,54,11.70
2016,07,25,05,55,11.70
2016,07,25,05,56,11.70
2016,07,25,05,57,11.60
2016,07,25,05,58,11.60
2016,07,25,05,59,11.60
2016,07,25,06,00,11.70
2016,07,25,06,01,11.70
2016,07,25,06,02,11.70
2016,07,25,06,03,11.60
2016,07,25,06,04,11.50
2016,07,25,06,05,11.60
2016,07,25,06,06,11.80
2016,07,25,06,07,12.00
2016,07,25,06,08,12.20
2016,07,25,06,09,12.40
2016,07,25,06,10,12.50
2016,07,25,06,11,12.60
2016,07,25,06,12,12.60
2016,07,25,06,13,12.60
2016,07,25,06,14,12.60
2016,07,25,06,15,12.60
2016,07,25,06,16,12.70
2016,07,25,06,17,12.90
2016,07,25,06,18,13.00
2016,07,25,06,19,13.20
2016,07,25,06,20,13.30
2016,07,25,06,21,13.30
2016,07,25,06,22,13.40
2016,07,25,06,23,13.40
2016,07,25,06,24,13.50
2016,07,25,06,25,13.50
2016,07,25,06,26,13.50
2016,07,25,06,27,13.60
2016,07,25,06,28,13.60
2016,07,25,06,29,13.60
2016,07,25,06,30,13.50
2016,07,25,06,31,13.50
2016,07,25,06,32,13.40
2016,07,25,06,33,13.20
2016,07,25,06,34,13.00
2016,07,25,06,35,12.90
2016,07,25,06,36,12.90
2016,07,25,06,37,12.80
2016,07,25,06,38,12.70
2016,07,25,06,39,12.60
2016,07,25,06,40,12.50
2016,07,25,06,41,12.40
2016,07,25,06,42,12.30
2016,07,25,06,43,12.30
2016,07,25,06,44,12.20
2016,07,25,06,45,12.10
2016,07,25,06,46,12.00
2016,07,25,06,47,11.90
2016,07,25,06,48,11.90
2016,07,25,06,49,11.90
2016,07,25,06,50,11.80
2016,07,25,06,51,11.80
2016,07,25,06,52,11.70
2016,07,25,06,53,11.70
2016,07,25,06,54,11.80
2016,07,25,06,55,11.80
2016,07,25,06,56,11.70
2016,07,25,06,57,11.70
2016,07,25,06,58,11.70
2016,07,25,06,59,12.00
2016,07,25,07,00,12.20
2016,07,25,07,01,12.50
2016,07,25,07,02,12.60
2016,07,25,07,03,12.60
2016,07,25,07,04,12.60
2016,07,25,07,05,12.60
2016,07,25,07,06,12.40
2016,07,25,07,07,12.30
2016,07,25,07,08,12.20
2016,07,25,07,09,12.10
2016,07,25,07,10,12.00
2016,07,25,07,11,11.90
2016,07,25,07,12,11.80
2016,07,25,07,13,11.70
2016,07,25,07,14,11.70
2016,07,25,07,15,11.60
2016,07,25,07,16,11.60
2016,07,25,07,17,11.60
2016,07,25,07,18,11.60
2016,07,25,07,19,11.60
2016,07,25,07,20,11.60
2016,07,25,07,21,11.60
2016,07,25,07,22,11.60
2016,07,25,07,23,11.60
2016,07,25,07,24,11.60
2016,07,25,07,25,11.60
2016,07,25,07,26,11.50
2016,07,25,07,27,11.50
2016,07,25,07,28,11.50
2016,07,25,07,29,11.40
2016,07,25,07,30,11.50
2016,07,25,07,31,11.70
2016,07,25,07,32,12.00
2016,07,25,07,33,12.00
2016,07,25,07,34,11.80
2016,07,25,07,35,11.70
2016,07,25,07,36,11.60
2016,07,25,07,37,11.50
2016,07,25,07,38,11.50
2016,07,25,07,39,11.50
2016,07,25,07,40,11.50
2016,07,25,07,41,11.60
2016,07,25,07,42,11.60
2016,07,25,07,43,11.70
2016,07,25,07,44,11.70
2016,07,25,07,45,11.60
2016,07,25,07,46,11.60
2016,07,25,07,47,11.60
2016,07,25,07,48,11.60
2016,07,25,07,49,11.60
2016,07,25,07,50,11.60
2016,07,25,07,51,11.60
2016,07,25,07,52,11.60
2016,07,25,07,53,11.70
2016,07,25,07,54,11.70
2016,07,25,07,55,11.70
2016,07,25,07,56,11.90
2016,07,25,07,57,12.20
2016,07,25,07,58,12.40
2016,07,25,07,59,12.80
2016,07,25,08,00,12.80
2016,07,25,08,01,12.50
2016,07,25,08,02,12.30
2016,07,25,08,03,12.10
2016,07,25,08,04,11.90
2016,07,25,08,05,11.80
2016,07,25,08,06,11.80
2016,07,25,08,07,11.70
2016,07,25,08,08,11.70
2016,07,25,08,09,11.60
2016,07,25,08,10,11.60
2016,07,25,08,11,11.50
2016,07,25,08,12,11.50
2016,07,25,08,13,11.50
2016,07,25,08,14,11.40
2016,07,25,08,15,11.40
2016,07,25,08,16,11.40
2016,07,25,08,17,11.50
2016,07,25,08,18,11.50
2016,07,25,08,19,11.50
2016,07,25,08,20,11.50
2016,07,25,08,21,11.50
2016,07,25,08,22,11.60
2016,07,25,08,23,11.60
2016,07,25,08,24,11.50
2016,07,25,08,25,11.50
2016,07,25,08,26,11.50
2016,07,25,08,27,11.50
2016,07,25,08,28,11.40
2016,07,25,08,29,11.40
2016,07,25,08,30,11.50
2016,07,25,08,31,11.50
2016,07,25,08,32,11.50
2016,07,25,08,33,11.60
2016,07,25,08,34,11.60
2016,07,25,08,35,11.70
2016,07,25,08,36,11.80
2016,07,25,08,37,11.90
2016,07,25,08,38,11.90
2016,07,25,08,39,11.90
2016,07,25,08,40,11.80
2016,07,25,08,41,11.80
2016,07,25,08,42,11.70
2016,07,25,08,43,11.70
2016,07,25,08,44,11.60
2016,07,25,08,45,11.60
2016,07,25,08,46,11.50
2016,07,25,08,47,11.50
2016,07,25,08,48,11.50
2016,07,25,08,49,11.50
2016,07,25,08,50,11.50
2016,07,25,08,51,11.60
2016,07,25,08,52,11.60
2016,07,25,08,53,11.60
2016,07,25,08,54,11.50
2016,07,25,08,55,11.50
2016,07,25,08,56,11.50
2016,07,25,08,57,11.50
2016,07,25,08,58,11.50
2016,07,25,08,59,11.50
2016,07,25,09,00,11.60
2016,07,25,09,01,11.60
2016,07,25,09,02,11.60
2016,07,25,09,03,11.60
2016,07,25,09,04,11.60
2016,07,25,09,05,11.60
2016,07,25,09,06,11.60
2016,07,25,09,07,11.60
2016,07,25,09,08,11.60
2016,07,25,09,09,11.60
2016,07,25,09,10,11.60
2016,07,25,09,11,11.60
2016,07,25,09,12,11.60
2016,07,25,09,13,11.60
2016,07,25,09,14,11.60
2016,07,25,09,15,11.60
2016,07,25,09,16,11.60
2016,07,25,09,17,11.60
2016,07,25,09,18,11.60
2016,07,25,09,19,11.60
2016,07,25,09,20,11.60
2016,07,25,09,21,11.60
2016,07,25,09,22,11.70
2016,07,25,09,23,11.70
2016,07,25,09,24,11.70
2016,07,25,09,25,11.70
2016,07,25,09,26,11.70
2016,07,25,09,27,11.70
2016,07,25,09,28,11.70
2016,07,25,09,29,11.70
2016,07,25,09,30,11.70
2016,07,25,09,31,11.70
2016,07,25,09,32,11.70
2016,07,25,09,33,11.70
2016,07,25,09,34,11.70
2016,07,25,09,35,11.70
2016,07,25,09,36,11.80
2016,07,25,09,37,11.80
2016,07,25,09,38,11.80
2016,07,25,09,39,11.80
2016,07,25,09,40,11.80
2016,07,25,09,41,11.80
2016,07,25,09,42,11.80
2016,07,25,09,43,11.80
2016,07,25,09,44,11.80
2016,07,25,09,45,11.80
2016,07,25,09,46,11.80
2016,07,25,09,47,11.80
2016,07,25,09,48,11.80
2016,07,25,10,06,11.90
2016,07,25,10,07,11.80
2016,07,25,10,08,11.80
2016,07,25,10,09,11.90
2016,07,25,10,10,11.90
2016,07,25,10,11,11.90
2016,07,25,10,12,12.00
2016,07,25,10,13,12.00
2016,07,25,10,14,12.00
2016,07,25,10,15,12.10
2016,07,25,10,16,12.10
2016,07,25,10,17,12.10
2016,07,25,10,18,12.20
2016,07,25,10,19,12.20
2016,07,25,10,20,12.20
2016,07,25,10,21,12.20
2016,07,25,10,22,12.30
2016,07,25,10,23,12.40
2016,07,25,10,24,12.60
2016,07,25,10,25,12.70
2016,07,25,10,26,13.10
2016,07,25,10,27,13.60
2016,07,25,10,28,14.00
2016,07,25,10,29,14.00
2016,07,25,10,30,14.10
2016,07,25,10,31,14.50
2016,07,25,10,32,14.50
2016,07,25,10,33,14.50
2016,07,25,10,34,14.40
2016,07,25,10,35,14.20
2016,07,25,10,36,13.90
2016,07,25,10,37,13.70
2016,07,25,10,38,13.60
2016,07,25,10,39,13.50
2016,07,25,10,40,13.40
2016,07,25,10,41,13.40
2016,07,25,10,42,13.30
2016,07,25,10,43,13.30
2016,07,25,10,44,13.30
2016,07,25,10,45,13.30
2016,07,25,10,46,13.20
2016,07,25,10,47,13.10
2016,07,25,10,48,13.10
2016,07,25,10,49,13.00
2016,07,25,10,50,12.90
2016,07,25,10,51,12.90
2016,07,25,10,52,12.80
2016,07,25,10,53,12.70
2016,07,25,10,54,12.70
2016,07,25,10,55,12.70
2016,07,25,10,56,12.60
2016,07,25,10,57,12.60
2016,07,25,10,58,12.60
2016,07,25,10,59,12.60
2016,07,25,11,00,12.50
2016,07,25,11,01,12.60
2016,07,25,11,02,12.60
2016,07,25,11,03,12.60
2016,07,25,11,04,12.60
2016,07,25,11,05,12.60
2016,07,25,11,06,12.60
2016,07,25,11,07,12.70
2016,07,25,11,08,12.70
2016,07,25,11,09,12.70
2016,07,25,11,10,12.70
2016,07,25,11,11,12.80
2016,07,25,11,12,12.80
2016,07,25,11,13,12.80
2016,07,25,11,14,12.70
2016,07,25,11,15,12.70
2016,07,25,11,16,12.70
2016,07,25,11,17,12.70
2016,07,25,11,18,12.70
2016,07,25,11,19,12.70
2016,07,25,11,20,12.70
2016,07,25,11,21,12.70
2016,07,25,11,22,12.70
2016,07,25,11,23,12.70
2016,07,25,11,24,12.60
2016,07,25,11,25,12.70
2016,07,25,11,26,12.70
2016,07,25,11,27,12.80
2016,07,25,11,28,12.90
2016,07,25,11,29,13.00
2016,07,25,11,30,13.10
2016,07,25,11,31,13.00
2016,07,25,11,32,12.90
2016,07,25,11,33,12.80
2016,07,25,11,34,12.70
2016,07,25,11,35,12.60
2016,07,25,11,36,12.60
2016,07,25,11,37,12.60
2016,07,25,11,38,12.60
2016,07,25,11,39,12.60
2016,07,25,11,40,12.70
2016,07,25,11,41,12.70
2016,07,25,11,42,12.70
2016,07,25,11,43,12.70
2016,07,25,11,44,12.70
2016,07,25,11,45,12.70
2016,07,25,11,46,12.70
2016,07,25,11,47,12.70
2016,07,25,11,48,12.70
2016,07,25,11,49,12.70
2016,07,25,11,50,12.70
2016,07,25,11,51,12.70
2016,07,25,11,52,12.60
2016,07,25,11,53,12.60
2016,07,25,11,54,12.60
2016,07,25,11,55,12.60
2016,07,25,11,56,12.60
2016,07,25,11,57,12.60
2016,07,25,11,58,12.60
2016,07,25,11,59,12.60
2016,07,25,12,00,12.60
2016,07,25,12,01,12.60
2016,07,25,12,02,12.60
2016,07,25,12,03,12.60
2016,07,25,12,04,12.50
2016,07,25,12,05,12.50
2016,07,25,12,06,12.40
2016,07,25,12,07,12.40
2016,07,25,12,08,12.40
2016,07,25,12,09,12.30
2016,07,25,12,10,12.30
2016,07,25,12,11,12.30
2016,07,25,12,12,12.30
2016,07,25,12,13,12.40
2016,07,25,12,14,12.40
2016,07,25,12,15,12.40
2016,07,25,12,16,12.40
2016,07,25,12,17,12.40
2016,07,25,12,18,12.40
2016,07,25,12,19,12.40
2016,07,25,12,20,12.40
2016,07,25,12,21,12.40
2016,07,25,12,22,12.40
2016,07,25,12,23,12.40
2016,07,25,12,24,12.40
2016,07,25,12,25,12.40
2016,07,25,12,26,12.40
2016,07,25,12,27,12.40
2016,07,25,12,28,12.40
2016,07,25,12,29,12.40
2016,07,25,12,30,12.30
2016,07,25,12,31,12.30
2016,07,25,12,32,12.30
2016,07,25,12,33,12.30
2016,07,25,12,34,12.30
2016,07,25,12,35,12.30
2016,07,25,12,36,12.30
2016,07,25,12,37,12.30
2016,07,25,12,38,12.40
2016,07,25,12,39,12.40
2016,07,25,12,40,12.50
2016,07,25,12,41,12.50
2016,07,25,12,42,12.60
2016,07,25,12,43,12.60
2016,07,25,12,44,12.60
2016,07,25,12,45,12.50
2016,07,25,12,46,12.50
2016,07,25,12,47,12.50
2016,07,25,12,48,12.50
2016,07,25,12,49,12.50
2016,07,25,12,50,12.50
2016,07,25,12,51,12.40
2016,07,25,12,52,12.50
2016,07,25,12,53,12.50
2016,07,25,12,54,12.50
2016,07,25,12,55,12.50
2016,07,25,12,56,12.60
2016,07,25,12,57,12.60
2016,07,25,12,58,12.60
2016,07,25,12,59,12.50
2016,07,25,13,00,12.50
2016,07,25,13,01,12.50
2016,07,25,13,02,12.50
2016,07,25,13,03,12.50
2016,07,25,13,04,12.60
2016,07,25,13,05,12.60
2016,07,25,13,06,12.60
2016,07,25,13,07,12.60
2016,07,25,13,08,12.50
2016,07,25,13,09,12.50
2016,07,25,13,10,12.50
2016,07,25,13,11,12.50
2016,07,25,13,12,12.50
2016,07,25,13,13,12.40
2016,07,25,13,14,12.40
2016,07,25,13,15,12.40
2016,07,25,13,16,12.40
2016,07,25,13,17,12.40
2016,07,25,13,18,12.40
2016,07,25,13,19,12.40
2016,07,25,13,20,12.40
2016,07,25,13,21,12.40
2016,07,25,13,22,12.30
2016,07,25,13,23,12.30
2016,07,25,13,24,12.30
2016,07,25,13,25,12.30
2016,07,25,13,26,12.40
2016,07,25,13,27,12.40
2016,07,25,13,28,12.40
2016,07,25,13,29,12.40
2016,07,25,13,30,12.50
2016,07,25,13,31,12.50
2016,07,25,13,32,12.50
2016,07,25,13,33,12.60
2016,07,25,13,34,12.60
2016,07,25,13,35,12.60
2016,07,25,13,36,12.70
2016,07,25,13,37,12.70
2016,07,25,13,38,12.70
2016,07,25,13,39,12.70
2016,07,25,13,40,12.70
2016,07,25,13,41,12.70
2016,07,25,13,42,12.70
2016,07,25,13,43,12.70
2016,07,25,13,44,12.70
2016,07,25,13,45,12.70
2016,07,25,13,46,12.70
2016,07,25,13,47,12.70
2016,07,25,13,48,12.70
2016,07,25,13,49,12.80
2016,07,25,13,50,12.80
2016,07,25,13,51,12.80
2016,07,25,13,52,12.80
2016,07,25,13,53,12.80
2016,07,25,13,54,12.80
2016,07,25,13,55,12.80
2016,07,25,13,56,12.90
2016,07,25,13,57,12.80
2016,07,25,13,58,12.90
2016,07,25,13,59,12.90
2016,07,25,14,00,12.90
2016,07,25,14,01,12.90
2016,07,25,14,02,12.90
2016,07,25,14,03,12.90
2016,07,25,14,04,12.90
2016,07,25,14,05,12.90
2016,07,25,14,06,12.90
2016,07,25,14,07,12.90
2016,07,25,14,08,12.90
2016,07,25,14,09,12.90
2016,07,25,14,10,12.90
2016,07,25,14,11,12.90
2016,07,25,14,12,12.90
2016,07,25,14,13,12.90
2016,07,25,14,14,12.90
2016,07,25,14,15,12.90
2016,07,25,14,16,12.90
2016,07,25,14,17,12.90
2016,07,25,14,18,12.90
2016,07,25,14,19,12.90
2016,07,25,14,20,12.90
2016,07,25,14,21,12.90
2016,07,25,14,22,12.90
2016,07,25,14,23,12.90
2016,07,25,14,24,12.90
2016,07,25,14,25,12.90
2016,07,25,14,26,12.90
2016,07,25,14,27,12.90
2016,07,25,14,28,12.90
2016,07,25,14,29,12.90
2016,07,25,14,30,12.90
2016,07,25,14,31,12.90
2016,07,25,14,32,12.90
2016,07,25,14,33,12.90
2016,07,25,14,34,12.90
2016,07,25,14,35,12.90
2016,07,25,14,36,12.90
2016,07,25,14,37,12.90
2016,07,25,14,38,12.90
2016,07,25,14,39,12.90
2016,07,25,14,40,12.80
2016,07,25,14,41,12.80
2016,07,25,14,42,12.80
2016,07,25,14,43,12.80
2016,07,25,14,44,12.70
2016,07,25,14,45,12.70
2016,07,25,14,46,12.70
2016,07,25,14,47,12.70
2016,07,25,14,48,12.70
2016,07,25,14,49,12.70
2016,07,25,14,50,12.70
2016,07,25,14,51,12.70
2016,07,25,14,52,12.70
2016,07,25,14,53,12.70
2016,07,25,14,54,12.70
2016,07,25,14,55,12.70
2016,07,25,14,56,12.80
2016,07,25,14,57,12.80
2016,07,25,14,58,12.80
2016,07,25,14,59,12.80
2016,07,25,15,00,12.80
2016,07,25,15,01,12.80
2016,07,25,15,02,12.80
2016,07,25,15,03,12.80
2016,07,25,15,04,12.80
2016,07,25,15,05,12.80
2016,07,25,15,06,12.80
2016,07,25,15,07,12.80
2016,07,25,15,08,12.80
2016,07,25,15,09,12.80
2016,07,25,15,10,12.90
2016,07,25,15,11,12.90
2016,07,25,15,12,12.90
2016,07,25,15,13,12.90
2016,07,25,15,14,12.90
2016,07,25,15,15,12.80
2016,07,25,15,16,12.80
2016,07,25,15,17,12.80
2016,07,25,15,18,12.80
2016,07,25,15,19,12.80
2016,07,25,15,20,12.80
2016,07,25,15,21,12.80
2016,07,25,15,22,12.90
2016,07,25,15,23,12.90
2016,07,25,15,24,12.90
2016,07,25,15,25,12.90
2016,07,25,15,26,12.90
2016,07,25,15,27,13.00
2016,07,25,15,28,13.00
2016,07,25,15,29,13.00
2016,07,25,15,30,13.00
2016,07,25,15,31,13.00
2016,07,25,15,32,13.00
2016,07,25,15,33,13.00
2016,07,25,15,34,13.00
2016,07,25,15,35,13.00
2016,07,25,15,36,13.10
2016,07,25,15,37,13.00
2016,07,25,15,38,13.00
2016,07,25,15,39,13.00
2016,07,25,15,40,13.00
2016,07,25,15,41,12.90
2016,07,25,15,42,12.90
2016,07,25,15,43,12.90
2016,07,25,15,44,13.00
2016,07,25,15,45,13.00
2016,07,25,15,46,13.00
2016,07,25,15,47,12.90
2016,07,25,15,48,12.90
2016,07,25,15,49,12.90
2016,07,25,15,50,12.90
2016,07,25,15,51,12.90
2016,07,25,15,52,12.90
2016,07,25,15,53,13.00
2016,07,25,15,54,13.00
2016,07,25,15,55,12.90
2016,07,25,15,56,13.00
2016,07,25,15,57,13.00
2016,07,25,15,58,12.90
2016,07,25,15,59,12.90
2016,07,25,16,00,13.00
2016,07,25,16,01,12.90
2016,07,25,16,02,13.00
2016,07,25,16,03,13.00
2016,07,25,16,04,13.10
2016,07,25,16,05,13.10
2016,07,25,16,06,13.10
2016,07,25,16,07,13.10
2016,07,25,16,08,13.10
2016,07,25,16,09,13.10
2016,07,25,16,10,13.10
2016,07,25,16,11,13.10
2016,07,25,16,12,13.10
2016,07,25,16,13,13.10
2016,07,25,16,14,13.10
2016,07,25,16,15,13.10
2016,07,25,16,16,13.10
2016,07,25,16,17,13.20
2016,07,25,16,18,13.20
2016,07,25,16,19,13.20
2016,07,25,16,20,13.20
2016,07,25,16,21,13.20
2016,07,25,16,22,13.20
2016,07,25,16,23,13.20
2016,07,25,16,24,13.10
2016,07,25,16,25,13.10
2016,07,25,16,26,13.10
2016,07,25,16,27,13.10
2016,07,25,16,28,13.20
2016,07,25,16,29,13.20
2016,07,25,16,30,13.20
2016,07,25,16,31,13.20
2016,07,25,16,32,13.30
2016,07,25,16,33,13.30
2016,07,25,16,34,13.30
2016,07,25,16,35,13.30
2016,07,25,16,36,13.30
2016,07,25,16,37,13.30
2016,07,25,16,38,13.30
2016,07,25,16,39,13.30
2016,07,25,16,40,13.40
2016,07,25,16,41,13.40
2016,07,25,16,42,13.50
2016,07,25,16,43,13.50
2016,07,25,16,44,13.50
2016,07,25,16,45,13.50
2016,07,25,16,46,13.60
2016,07,25,16,47,13.70
2016,07,25,16,48,13.70
2016,07,25,16,49,13.70
2016,07,25,16,50,13.70
2016,07,25,16,51,13.80
2016,07,25,16,52,13.80
2016,07,25,16,53,13.80
2016,07,25,16,54,13.80
2016,07,25,16,55,13.80
2016,07,25,16,56,13.80
2016,07,25,16,57,13.80
2016,07,25,16,58,13.80
2016,07,25,16,59,13.70
2016,07,25,17,00,13.70
2016,07,25,17,01,13.80
2016,07,25,17,02,13.80
2016,07,25,17,03,13.90
2016,07,25,17,04,13.90
2016,07,25,17,05,13.90
2016,07,25,17,06,13.90
2016,07,25,17,07,14.00
2016,07,25,17,08,14.20
2016,07,25,17,09,14.40
2016,07,25,17,10,14.40
2016,07,25,17,11,14.30
2016,07,25,17,12,14.40
2016,07,25,17,13,14.70
2016,07,25,17,14,15.40
2016,07,25,17,15,15.80
2016,07,25,17,16,16.00
2016,07,25,17,17,16.20
2016,07,25,17,18,15.90
2016,07,25,17,19,15.60
2016,07,25,17,20,15.40
2016,07,25,17,21,15.20
2016,07,25,17,22,15.00
2016,07,25,17,23,14.90
2016,07,25,17,24,14.80
2016,07,25,17,25,14.80
2016,07,25,17,26,14.80
2016,07,25,17,27,14.80
2016,07,25,17,28,14.80
2016,07,25,17,29,14.90
2016,07,25,17,30,15.10
2016,07,25,17,31,15.20
2016,07,25,17,32,15.30
2016,07,25,17,33,15.60
2016,07,25,17,34,15.70
2016,07,25,17,35,15.80
2016,07,25,17,36,15.80